Voltar ao catálogo

STARLINK-36470

AtivoComunicaçõesVLEO
NORAD 67319·PAYLOAD·🇺🇸 United States

Lançado Jan 4, 2026 de Cape Canaveral Space Force Station

Loading…

Próximas Passagens (próximas 24 horas)

TLE

AtualizadoSource: CelesTrak SupGP

Época: Sep 15, 2026, 04:23 UTC

1 67319C 26002Q   26258.18312500  .00039058  00000+0  14144-2 0  2587
2 67319  43.0019 335.2802 0001506 260.5076 239.5348 15.27565969    16

Acompanhe STARLINK-36470 em tempo real com AllMySat

Download on the App Store